SES-19

Last updated on Sun Apr 12 2026 00:02:56 GMT+0000 (Coordinated Universal Time)

1 55971U 23038B 26101.49399727 .00000089 00000+0 00000+0 0 9998 2 55971 0.0319 278.2209 0001777 112.9344 211.5046 1.00273830 11418
UTC large
Height (km)
Speed (km/s)
/
Latitude / Longitude
Inclination (degrees)
Orbital Period (minutes)
Azimuth
Elevation
Range (km)
Doppler Factor

Next 0 passes for location: London (51.5072 / 0.1276)

Sorry there are no passes over London.
SES-19